Location: Carrer del Canonge
(41.4901°N, 2.2931°E)
Time: 19:59:28
(UTC+00:00)

Cosmos 1844 Rocket - Visible Passes

Search period start: 26 January 2021 00:00
Search period end: 05 February 2021 00:00
Orbit: 824 x 845 km, 71.0° (Epoch: 25 January)

Date Brightness Start Highest point End Pass type
(mag) Time Alt. Az. Time Alt. Az. Time Alt. Az.
26 Jan 4.4 18:09:47 10° WSW 18:14:47 31° WNW 18:19:48 10° N visible
27 Jan 4.2 17:52:24 10° WSW 17:57:31 34° WNW 18:02:39 10° N visible
28 Jan 4.1 17:35:01 10° SW 17:40:15 37° WNW 17:45:29 10° N visible
02 Feb 5.4 17:58:09 10° NW 17:59:06 10° NW 18:00:04 10° NNW visible
03 Feb 5.3 17:40:01 10° WNW 17:41:46 11° NW 17:43:31 10° NNW visible
